TITAN 3C TRANSTAGE R/B, 3692

Orbit data source: Space-Track

TITAN 3C TRANSTAGE R/B, 3692 is space debris in GEO originally from a launch on Sun, 09 Feb 1969 UTC launched from the Air Force Eastern Test Range (AFETR). Debris objects in space refer to the collection of defunct objects orbiting the Earth. Examples of debris include non-operational satellites, rocket bodies, and fragments generated from explosions, collisions, or faulty payload assembly.

Not visible in the next 10 days
Identifier
3692, 1969-013B
Orbit
GEO
Country
Flag of USUS
Related business
Manufacturer
Martin Marietta
Mission
Spacecraft
Bus & Motor
TRANSTAGE, Unknown motor
Mass
2,028 kg wet, 2,028 kg dry
Launch date (UTC)
1969-02-09 (58 years ago)
Launch vehicle
Unknown
Launch site
Air Force Eastern Test Range (AFETR)
Object type
Payload
Rocket body
Debris
Shape & HBR
CYL + 2 NOZZLE, 1.1 m
Radar Cross Section
Large (>1 m²)

Expand to show TLE details & history
Last TLE update: 13 hours ago

TLE from 13 hours ago
0 TITAN 3C TRANSTAGE R/B
1 03692U 69013B   26255.22691475 -.00000185  00000-0  00000-0 0  9990
2 03692   1.5334  77.4451 0164714  39.2406 337.0713  0.97536125 43170
Epoch: 2026-09-12T05:26Z
TLE epoch observation values (Epoch: 2026-09-12T05:26:45.434Z)
Latitude
0.38535°
Longitude
20.06329°
Altitude
35,923.602 km
Speed
3.093 km/s
True Right ascension
06h 11m 57s
True Declination
0° 23' 06"
Sunlit
Object was in daylight at epoch
Visualization orbit readout
Latitude
Unknown
Longitude
Unknown
Altitude
Unknown
Speed
Unknown
Apparent Right ascension
Unknown
Apparent Declination
Unknown
Sunlit
N/A
Visualization observer readout
Local Sidereal Time
11:14:38
Azimuth
Unknown
Elevation
Unknown
Doppler factor
Unknown
Orbital elements
Apogee altitude
37,279.876 km
Perigee altitude
35,864.965 km
Semi-major axis
42,950.557 km
Eccentricity
0.01647
Inclination
1.5334°
RAAN
77.4451°
Arg. of periapsis
39.2406°
True anomaly
336.32178°
Mean anomaly
337.0713°
Eccentric anomaly
336.69798°
Mean motion
0.24383 °/min
Orbital period
1,476.43 mins
BSTAR
0
Loading maneuver chart data...
Computing Atmospheric mass density...

Documentation

Showing up to 5 results
|